Vorticity
5 4 3 3 2 2 2 2 3 7 7 8 7 7 4 4 4 6 4 6 9 10 9 7 10 8 8 8 4 3 5 5 4 5 6 5 5 5 5 7 5 6 5
9 6 7 -3 -1 1 2 2 3 3 8 8 6 5 4 4 5 4 5 5 5 8 6 8 8 9 7 4 4 7 5 4 5 4 4 3 4 5 6 6 4 4 5
8 15 2 -2 -0 0 -1 1 2 2 7 8 5 4 3 4 6 3 4 4 4 5 7 7 8 6 5 4 6 5 4 4 3 4 5 5 6 6 6 6 5 4 5
4 6 13 5 7 6 2 -1 -2 2 3 8 5 4 3 4 5 5 3 2 4 6 5 7 7 6 6 6 5 4 4 4 3 4 5 5 6 7 5 5 6 7 6
2 3 4 5 5 5 9 6 5 2 2 5 5 3 3 3 4 4 4 1 1 4 7 5 6 7 6 5 3 4 4 3 4 5 6 6 6 5 5 6 5 6 6
4 4 4 4 4 3 4 7 5 4 2 2 5 4 3 2 2 5 4 4 2 3 4 7 5 5 5 4 4 4 3 3 3 4 5 9 9 8 7 5 5 5 6
4 4 5 4 4 3 2 4 5 7 4 2 3 5 3 3 2 2 5 4 4 3 3 5 6 5 4 4 4 4 4 2 4 5 9 9 9 9 10 11 9 8 5
7 7 6 5 7 6 7 2 3 4 6 4 1 2 5 3 2 2 2 6 4 4 4 5 8 5 4 5 4 5 3 2 4 5 4 4 6 8 10 8 8 8 7
4 3 4 6 6 6 6 6 6 4 4 6 3 2 1 5 4 4 2 3 5 3 4 4 5 6 4 5 4 6 4 2 3 1 3 3 3 6 5 8 9 8 7
10 7 4 4 4 4 7 7 4 7 6 5 5 5 2 2 4 5 3 2 3 5 4 4 5 5 5 4 6 6 5 2 2 2 -2 0 0 1 3 7 9 9 9
10 13 11 9 7 7 5 4 3 5 6 6 7 5 6 3 0 3 5 4 2 2 4 3 4 5 5 4 4 5 7 3 2 2 1 -0 -1 2 3 3 6 8 8
7 7 7 8 10 8 8 9 6 3 3 4 5 7 7 6 5 0 1 5 4 3 2 2 4 4 5 5 4 3 5 8 2 3 2 2 -0 1 2 2 5 5 7
7 6 8 8 6 6 6 7 9 9 7 4 1 5 5 9 7 6 -1 5 2 6 4 2 2 3 3 5 5 4 3 6 8 3 2 2 2 1 -0 1 2 6 4
9 8 8 7 7 8 8 7 5 6 8 8 7 5 2 3 5 14 -1 9 4 1 4 4 4 2 3 3 5 5 4 4 5 8 6 4 1 3 0 2 2 3 4
8 13 12 8 6 5 5 6 9 8 7 7 6 7 10 5 2 -7 -0 16 -11 0 2 3 5 4 3 2 3 5 4 5 4 5 7 6 4 3 2 2 3 3 3
12 10 8 13 11 8 7 5 4 6 7 8 8 7 5 7 20 13 -5 16 12 -2 2 1 2 5 5 5 3 3 5 4 5 4 5 6 5 4 3 1 1 2 2
10 13 12 12 9 12 10 8 7 5 5 4 6 8 9 9 5 14 -16 18 42 13 13 5 2 2 4 5 5 4 3 4 5 5 4 4 6 6 4 4 1 1 3
20 14 14 13 12 11 9 11 8 7 6 5 4 5 6 8 9 4 -12 18 -1 14 -2 9 3 1 4 7 4 5 4 4 4 4 4 4 5 6 4 4 5 2 1
19 20 23 21 19 11 12 11 10 10 9 7 6 5 4 4 7 10 8 -6 7 -26 8 17 8 -9 4 6 1 5 4 4 4 4 4 6 5 4 5 5 5 4 3
10 13 19 17 18 24 23 14 11 10 10 12 8 7 8 6 4 4 9 6 -0 7 -19 57 29 -15 25 -7 4 -3 4 4 5 5 5 4 5 5 5 5 5 5 5
7 6 9 22 9 16 18 24 22 12 14 10 11 12 7 8 8 6 7 11 12 5 5 -10 3 16 35 2 9 3 -2 5 6 5 7 5 5 4 4 5 5 5 6
10 11 4 10 9 17 6 14 19 24 22 15 13 14 14 12 10 10 6 7 9 9 2 5 -2 -13 8 2 8 -2 16 12 6 6 5 7 4 5 7 -3 4 6 5
13 12 5 8 8 3 20 13 8 9 17 27 25 16 13 15 12 11 11 9 10 7 8 -6 13 37 4 24 3 -7 21 5 4 4 8 7 7 5 4 4 9 5 6
12 9 12 15 17 13 8 12 6 7 9 5 14 19 20 19 18 15 16 14 9 15 15 16 -41 -15 -22 44 1 13 22 12 2 -11 9 8 7 6 6 3 7 6 7
7 13 13 16 13 8 12 12 10 16 11 10 8 5 18 18 23 20 16 15 12 11 15 19 4 -0 -1 -28 6 4 4 37 16 16 -7 -0 3 1 7 6 6 7 6
4 14 17 15 7 10 15 10 7 4 1 -1 9 11 6 9 18 20 21 20 14 9 13 20 32 5 2 -5 -1 21 17 10 25 19 22 11 8 5 11 8 3 9 9
Height
5855 5855 5856 5857 5857 5858 5858 5859 5860 5860 5860 5860 5860 5861 5862 5862 5863 5864 5865 5865 5865 5865 5866 5867 5868 5868 5869 5870 5871 5873 5873 5874 5874 5874 5874 5874 5875 5875 5875 5875 5875 5875 5875
5850 5852 5853 5854 5855 5856 5856 5856 5857 5858 5858 5858 5859 5860 5861 5861 5862 5862 5863 5864 5864 5865 5865 5866 5867 5867 5868 5869 5871 5872 5872 5873 5873 5873 5874 5874 5874 5874 5874 5874 5874 5873 5873
5846 5848 5849 5850 5852 5853 5854 5854 5855 5856 5856 5857 5857 5858 5859 5860 5861 5861 5861 5862 5863 5864 5864 5865 5866 5866 5867 5869 5870 5871 5871 5872 5873 5873 5873 5873 5873 5873 5872 5872 5872 5872 5872
5843 5844 5845 5846 5847 5848 5850 5852 5852 5853 5854 5854 5855 5856 5857 5858 5859 5859 5860 5860 5861 5862 5863 5864 5865 5865 5866 5867 5869 5870 5870 5871 5872 5872 5872 5872 5871 5871 5871 5871 5871 5871 5871
5837 5840 5841 5841 5842 5843 5845 5846 5848 5850 5850 5851 5852 5853 5854 5855 5856 5857 5858 5858 5859 5860 5861 5863 5863 5863 5864 5866 5867 5869 5869 5870 5871 5871 5871 5871 5870 5870 5870 5870 5870 5869 5869
5831 5833 5835 5836 5837 5838 5840 5841 5843 5845 5846 5847 5848 5849 5851 5852 5853 5854 5855 5857 5858 5859 5860 5861 5862 5862 5862 5864 5866 5867 5868 5869 5869 5869 5869 5869 5869 5868 5868 5868 5867 5867 5867
5825 5826 5828 5829 5831 5833 5834 5837 5839 5840 5842 5844 5844 5845 5847 5848 5849 5850 5852 5853 5854 5856 5858 5859 5860 5860 5861 5862 5864 5865 5866 5867 5868 5868 5868 5868 5867 5867 5866 5866 5866 5865 5865
5819 5819 5820 5821 5824 5827 5829 5831 5833 5835 5837 5838 5840 5841 5842 5844 5846 5847 5848 5850 5851 5853 5855 5856 5857 5858 5858 5860 5861 5863 5864 5865 5865 5866 5867 5866 5866 5865 5864 5864 5863 5863 5862
5811 5812 5813 5814 5816 5820 5821 5823 5826 5828 5831 5833 5834 5836 5838 5840 5842 5843 5845 5846 5847 5849 5851 5853 5854 5854 5855 5857 5858 5860 5861 5862 5863 5864 5865 5865 5865 5863 5862 5861 5861 5861 5860
5805 5806 5807 5808 5809 5812 5815 5816 5819 5821 5824 5826 5827 5830 5833 5834 5836 5838 5840 5841 5843 5844 5846 5849 5850 5851 5851 5852 5855 5857 5858 5860 5861 5861 5862 5863 5862 5862 5861 5861 5859 5859 5858
5797 5799 5799 5799 5801 5803 5806 5809 5811 5814 5816 5819 5821 5823 5826 5828 5830 5831 5833 5835 5837 5839 5841 5843 5845 5846 5847 5849 5850 5852 5854 5855 5857 5858 5859 5860 5860 5860 5859 5859 5858 5857 5856
5788 5790 5792 5792 5792 5794 5796 5799 5802 5805 5808 5810 5813 5816 5818 5820 5822 5824 5827 5828 5831 5834 5836 5838 5839 5841 5843 5844 5846 5848 5849 5851 5852 5854 5855 5857 5857 5857 5857 5856 5856 5855 5854
5780 5780 5781 5783 5784 5785 5787 5789 5792 5795 5798 5801 5804 5807 5810 5811 5813 5816 5819 5821 5822 5825 5829 5831 5833 5835 5837 5839 5841 5843 5844 5846 5848 5849 5850 5852 5852 5853 5853 5853 5852 5852 5851
5770 5770 5770 5772 5774 5775 5777 5779 5781 5784 5787 5790 5794 5797 5800 5802 5803 5807 5809 5811 5815 5817 5820 5823 5826 5828 5830 5832 5835 5838 5839 5840 5843 5844 5846 5847 5847 5848 5849 5849 5849 5849 5848
5760 5759 5759 5760 5762 5764 5766 5768 5770 5773 5776 5778 5782 5786 5790 5791 5794 5797 5800 5800 5803 5808 5811 5814 5818 5821 5824 5826 5828 5831 5833 5835 5836 5838 5840 5841 5843 5844 5844 5844 5844 5845 5844
5748 5747 5747 5748 5749 5751 5753 5756 5758 5761 5764 5767 5770 5774 5777 5780 5783 5764 5786 5778 5789 5796 5801 5804 5809 5812 5815 5819 5821 5825 5826 5828 5830 5831 5834 5836 5837 5837 5839 5839 5840 5840 5840
5736 5734 5734 5735 5735 5737 5739 5741 5744 5747 5750 5753 5756 5760 5764 5768 5772 5775 5775 5770 5766 5786 5789 5793 5798 5803 5806 5809 5813 5817 5820 5821 5824 5825 5827 5828 5830 5832 5832 5833 5834 5835 5834
5723 5720 5720 5720 5720 5721 5723 5726 5728 5732 5736 5739 5742 5746 5749 5754 5758 5763 5765 5765 5762 5768 5781 5784 5788 5792 5799 5801 5804 5808 5812 5815 5816 5820 5821 5823 5823 5825 5826 5826 5827 5828 5828
5710 5707 5705 5704 5704 5704 5706 5709 5712 5715 5720 5724 5729 5731 5735 5739 5743 5748 5751 5754 5758 5764 5769 5772 5767 5780 5787 5793 5795 5799 5803 5806 5809 5812 5814 5816 5817 5818 5819 5820 5821 5821 5821
5698 5696 5693 5691 5688 5687 5688 5690 5694 5698 5701 5706 5712 5716 5719 5724 5728 5732 5736 5742 5749 5753 5757 5762 5766 5772 5777 5781 5785 5789 5794 5797 5800 5804 5805 5807 5810 5811 5812 5813 5813 5813 5813
5688 5684 5682 5680 5677 5674 5674 5674 5676 5679 5684 5689 5694 5699 5704 5708 5713 5718 5722 5726 5733 5741 5747 5752 5755 5761 5766 5769 5773 5778 5784 5786 5790 5793 5797 5798 5800 5803 5804 5804 5805 5805 5804
5678 5673 5670 5667 5665 5663 5661 5660 5661 5663 5669 5672 5675 5680 5686 5691 5697 5703 5708 5713 5719 5727 5734 5741 5745 5748 5754 5757 5762 5767 5772 5777 5780 5784 5787 5790 5791 5792 5794 5795 5797 5797 5797
5666 5662 5657 5655 5652 5649 5649 5648 5649 5651 5654 5657 5659 5661 5666 5672 5679 5686 5692 5697 5702 5710 5720 5728 5731 5736 5741 5746 5751 5756 5761 5767 5769 5774 5777 5780 5781 5783 5785 5785 5787 5787 5788
5653 5650 5644 5640 5637 5635 5633 5634 5635 5637 5640 5643 5643 5646 5650 5656 5662 5668 5674 5681 5688 5695 5703 5713 5717 5725 5732 5735 5740 5745 5748 5753 5756 5763 5767 5769 5772 5773 5775 5775 5777 5778 5778
5640 5635 5629 5625 5621 5619 5617 5617 5619 5622 5625 5627 5629 5634 5638 5642 5647 5653 5660 5666 5674 5681 5688 5696 5704 5712 5721 5726 5730 5734 5737 5740 5744 5751 5755 5759 5761 5765 5766 5767 5766 5768 5768
5626 5619 5613 5609 5605 5601 5599 5599 5601 5605 5608 5611 5615 5620 5626 5630 5634 5640 5647 5654 5660 5668 5675 5683 5691 5698 5707 5715 5719 5723 5726 5731 5732 5740 5743 5747 5751 5754 5758 5759 5757 5758 5759